Weather History for KSDY - March, 2014

Change the Weather History Date:

Saturday, March 1, 2014

  Actual Average Record
Temperature  
Mean Temperature -12 °F -  
Max Temperature -7 °F 37 °F 69 °F (1992)
Min Temperature -18 °F 13 °F -27 °F (1962)
Degree Days  
Heating Degree Days 78    
Moisture  
Dew Point -25 °F    
Average Humidity 56    
Maximum Humidity 77    
Minimum Humidity 41    
Precipitation  
Precipitation 0.00 in - - ()
Sea Level Pressure  
Sea Level Pressure 30.52 in    
Wind  
Wind Speed 8 mph (NW)    
Max Wind Speed 13 mph    
Max Gust Speed 16 mph    
Visibility 10 miles    
Events      
Averages and records for this station are not official NWS values.
T = Trace of Precipitation, MM = Missing Value Source: NWS Daily Summary

Daily Weather History Graph

Daily Weather History Graph

Search for Another Location

Airport or City:

Trip Planner

Search our weather history database for the weather conditions in past years. The results will help you decide how hot, cold, wet, or windy it might be!

Date:

Astronomy

Mar. 01, 2014 Rise Set
Actual Time 6:37 AM MST 5:41 PM MST
Civil Twilight 6:06 AM MST 6:12 PM MST
Nautical Twilight 5:30 AM MST 6:48 PM MST
Astronomical Twilight 4:54 AM MST 7:24 PM MST
Moon 6:28 AM MST (3/1) 6:38 PM MST (3/1)
Length of Visible Light 12h 06m
Length of Day
11h 04m
New Moon, 0% of the Moon is Illuminated
Mar 1
New Moon
Mar 8
First Quarter
Mar 16
Full
Mar 23
Last Quarter
Mar 30
New

Hourly Weather History & Observations

Time (MST) Temp. Windchill Dew Point Humidity Pressure Visibility Wind Dir Wind Speed Gust Speed Precip Events Conditions
12:15 AM -11.2 °F -32.1 °F -22.0 °F 59% 30.43 in 10.0 mi North 12.7 mph - N/A   Clear
12:35 AM -11.2 °F -32.1 °F -22.0 °F 59% 30.43 in 10.0 mi North 12.7 mph 16.1 mph N/A   Clear
12:55 AM -13.0 °F -31.3 °F -20.2 °F 70% 30.44 in 10.0 mi North 9.2 mph - N/A   Clear
1:15 AM -13.0 °F -28.6 °F -20.2 °F 70% 30.44 in 10.0 mi North 6.9 mph - N/A   Clear
1:35 AM -14.8 °F -33.5 °F -20.2 °F 77% 30.45 in 10.0 mi NNW 9.2 mph - N/A   Clear
1:55 AM -14.8 °F -30.8 °F -23.8 °F 64% 30.45 in 10.0 mi NNW 6.9 mph - N/A   Clear
2:15 AM -14.8 °F -30.8 °F -23.8 °F 64% 30.47 in 10.0 mi NNW 6.9 mph - N/A   Clear
2:55 AM -14.8 °F -29.1 °F -20.2 °F 77% 30.47 in 10.0 mi NW 5.8 mph - N/A   Clear
3:15 AM -14.8 °F -33.5 °F -22.0 °F 70% 30.47 in 7.0 mi NNW 9.2 mph - N/A   Mostly Cloudy
3:35 AM -14.8 °F -34.6 °F -20.2 °F 77% 30.47 in 5.0 mi North 10.4 mph - N/A   Mostly Cloudy
3:55 AM -16.6 °F -36.8 °F -25.6 °F 64% 30.48 in 5.0 mi North 10.4 mph - N/A   Mostly Cloudy
4:15 AM -16.6 °F -36.8 °F -23.8 °F 70% 30.49 in 8.0 mi North 10.4 mph - N/A   Mostly Cloudy
4:35 AM -16.6 °F -36.8 °F -25.6 °F 64% 30.50 in 7.0 mi North 10.4 mph - N/A   Scattered Clouds
4:55 AM -18.4 °F -36.6 °F -27.4 °F 63% 30.51 in 10.0 mi North 8.1 mph - N/A   Partly Cloudy
5:15 AM -18.4 °F -37.9 °F -27.4 °F 63% 30.52 in 10.0 mi North 9.2 mph - N/A   Clear
5:35 AM -18.4 °F -36.6 °F -29.2 °F 58% 30.53 in 10.0 mi NW 8.1 mph - N/A   Clear
5:55 AM -18.4 °F -36.6 °F -29.2 °F 58% 30.53 in 10.0 mi NNW 8.1 mph - N/A   Clear
6:15 AM -18.4 °F -36.6 °F -29.2 °F 58% 30.54 in 10.0 mi NNW 8.1 mph - N/A   Clear
6:35 AM -18.4 °F -39.1 °F -29.2 °F 58% 30.53 in 10.0 mi North 10.4 mph - N/A   Clear
6:55 AM -18.4 °F -36.6 °F -29.2 °F 58% 30.53 in 10.0 mi NNW 8.1 mph - N/A   Clear
7:15 AM -18.4 °F -37.9 °F -29.2 °F 58% 30.54 in 10.0 mi NNW 9.2 mph - N/A   Clear
7:35 AM -18.4 °F -41.2 °F -27.4 °F 63% 30.53 in 10.0 mi NNW 12.7 mph - N/A   Clear
7:55 AM -18.4 °F -41.2 °F -27.4 °F 63% 30.54 in 10.0 mi NNW 12.7 mph - N/A   Clear
8:15 AM -18.4 °F -40.2 °F -27.4 °F 63% 30.56 in 10.0 mi North 11.5 mph - N/A   Clear
8:35 AM -16.6 °F -37.9 °F -25.6 °F 64% 30.57 in 10.0 mi North 11.5 mph - N/A   Clear
8:55 AM -16.6 °F -37.9 °F -25.6 °F 64% 30.57 in 10.0 mi North 11.5 mph - N/A   Clear
9:15 AM -16.6 °F -34.4 °F -27.4 °F 58% 30.57 in 10.0 mi NNW 8.1 mph - N/A   Clear
9:35 AM -16.6 °F -32.9 °F -25.6 °F 64% 30.57 in 10.0 mi NW 6.9 mph - N/A   Scattered Clouds
9:55 AM -16.6 °F -31.3 °F -23.8 °F 70% 30.57 in 10.0 mi NNW 5.8 mph - N/A   Mostly Cloudy
10:15 AM -14.8 °F -32.2 °F -23.8 °F 64% 30.56 in 10.0 mi NNE 8.1 mph - N/A   Mostly Cloudy
10:35 AM -14.8 °F -30.8 °F -25.6 °F 58% 30.56 in 10.0 mi NNW 6.9 mph - N/A   Scattered Clouds
10:55 AM -14.8 °F -30.8 °F -23.8 °F 64% 30.56 in 10.0 mi NNW 6.9 mph - N/A   Scattered Clouds
11:15 AM -13.0 °F -28.6 °F -23.8 °F 59% 30.56 in 10.0 mi NW 6.9 mph - N/A   Partly Cloudy
11:35 AM -13.0 °F - -23.8 °F 59% 30.55 in 10.0 mi Calm Calm - N/A   Mostly Cloudy
11:55 AM -11.2 °F -24.8 °F -27.4 °F 45% 30.56 in 10.0 mi WNW 5.8 mph - N/A   Partly Cloudy
12:15 PM -11.2 °F - -27.4 °F 45% 30.55 in 10.0 mi Calm Calm - N/A   Mostly Cloudy
12:35 PM -11.2 °F - -25.6 °F 49% 30.55 in 10.0 mi Calm Calm - N/A   Overcast
12:55 PM -9.4 °F -26.8 °F -22.0 °F 54% 30.55 in 10.0 mi NW 9.2 mph - N/A   Overcast
1:15 PM -9.4 °F -27.9 °F -23.8 °F 49% 30.54 in 10.0 mi NW 10.4 mph - N/A   Mostly Cloudy
1:35 PM -9.4 °F -22.7 °F -23.8 °F 49% 30.53 in 10.0 mi WNW 5.8 mph - N/A   Mostly Cloudy
1:55 PM -9.4 °F -22.7 °F -23.8 °F 49% 30.53 in 10.0 mi NW 5.8 mph - N/A   Partly Cloudy
2:35 PM -7.6 °F -20.6 °F -23.8 °F 45% 30.52 in 10.0 mi NW 5.8 mph - N/A   Clear
2:55 PM -7.6 °F -22.1 °F -23.8 °F 45% 30.52 in 10.0 mi North 6.9 mph - N/A   Clear
3:15 PM -7.6 °F -16.5 °F -22.0 °F 50% 30.52 in 10.0 mi NNW 3.5 mph - N/A   Clear
3:35 PM -7.6 °F -23.4 °F -22.0 °F 50% 30.51 in 10.0 mi NNW 8.1 mph - N/A   Clear
3:55 PM -7.6 °F -22.1 °F -25.6 °F 41% 30.51 in 10.0 mi NNW 6.9 mph - N/A   Clear
4:15 PM -7.6 °F -23.4 °F -25.6 °F 41% 30.51 in 10.0 mi NW 8.1 mph - N/A   Clear
4:35 PM -7.6 °F -22.1 °F -22.0 °F 50% 30.51 in 10.0 mi NNW 6.9 mph - N/A   Clear
4:55 PM -7.6 °F -23.4 °F -22.0 °F 50% 30.50 in 10.0 mi NNW 8.1 mph - N/A   Clear
5:15 PM -7.6 °F -20.6 °F -25.6 °F 41% 30.51 in 10.0 mi NW 5.8 mph - N/A   Clear
5:35 PM -7.6 °F -18.8 °F -25.6 °F 41% 30.51 in 10.0 mi NNW 4.6 mph - N/A   Clear
5:55 PM -7.6 °F -20.6 °F -23.8 °F 45% 30.51 in 10.0 mi North 5.8 mph - N/A   Clear
6:15 PM -7.6 °F -20.6 °F -23.8 °F 45% 30.52 in 10.0 mi NW 5.8 mph - N/A   Clear
6:35 PM -7.6 °F - -25.6 °F 41% 30.53 in 10.0 mi Calm Calm - N/A   Partly Cloudy
6:55 PM -7.6 °F - -25.6 °F 41% 30.52 in 10.0 mi Calm Calm - N/A   Mostly Cloudy
7:15 PM -9.4 °F - -27.4 °F 41% 30.52 in 10.0 mi Calm Calm - N/A   Scattered Clouds
7:35 PM -11.2 °F -20.6 °F -25.6 °F 49% 30.53 in 10.0 mi West 3.5 mph - N/A   Clear
7:55 PM -11.2 °F -20.6 °F -27.4 °F 45% 30.53 in 10.0 mi NW 3.5 mph - N/A   Clear
8:15 PM -13.0 °F - -27.4 °F 49% 30.53 in 10.0 mi Calm Calm - N/A   Clear
8:35 PM -13.0 °F -25.1 °F -23.8 °F 59% 30.53 in 10.0 mi West 4.6 mph - N/A   Clear
8:55 PM -13.0 °F -25.1 °F -25.6 °F 53% 30.53 in 10.0 mi WNW 4.6 mph - N/A   Clear
9:15 PM -13.0 °F -27.0 °F -25.6 °F 53% 30.53 in 10.0 mi West 5.8 mph - N/A   Clear
9:35 PM -14.8 °F -29.1 °F -27.4 °F 53% 30.53 in 10.0 mi WNW 5.8 mph - N/A   Clear
9:55 PM -14.8 °F -29.1 °F -23.8 °F 64% 30.53 in 10.0 mi West 5.8 mph - N/A   Clear
10:15 PM -14.8 °F -30.8 °F -25.6 °F 58% 30.53 in 10.0 mi WNW 6.9 mph - N/A   Clear
10:35 PM -14.8 °F -30.8 °F -23.8 °F 64% 30.53 in 10.0 mi West 6.9 mph - N/A   Clear
10:55 PM -14.8 °F -30.8 °F -27.4 °F 53% 30.53 in 10.0 mi West 6.9 mph - N/A   Clear
11:15 PM -14.8 °F -29.1 °F -29.2 °F 48% 30.52 in 10.0 mi WNW 5.8 mph - N/A   Clear
11:35 PM -16.6 °F -31.3 °F - N/A% 30.52 in 10.0 mi WNW 5.8 mph - N/A   Clear
11:55 PM -14.8 °F -27.2 °F -25.6 °F 58% 30.52 in 10.0 mi WNW 4.6 mph - N/A   Clear